Terminal Aerodrome Forecast
Issued by NWS Twin Cities, MN

Home | Current Version | Previous Version | Text Only | Print | Product List | Glossary On
Versions: 1 2 3 4 5 6 7 8 9 10 11 12 13 14 15 16 17 18 19 20 21 22 23 24 25 26 27 28 29 30 31 32 33 34 35 36 37 38 39 40 41 42 43 44 45 46 47 48 49 50
688
FTUS43 KMPX 151423 AAA
TAFMSP
TAF AMD
KMSP 151423Z 1514/1618 14003KT P6SM SCT015
     FM151500 33004KT P6SM SCT015 BKN020
     FM151700 29006KT P6SM SCT035
     FM161500 17005KT P6SM SCT200=

USA.gov is the U.S. government's official web portal to all federal, state and local government web resources and services.